[[{"header":{"parameterUnit":"m.s-1","parameterCategory":1,"la1":30.2991,"la2":30.254,"lo1":-89.0895,"lo2":-89.0444,"dx":0.0017,"dy":0.0017,"nx":28,"ny":28,"refTime":"2022-11-05T21:00:00:Z","depth":0,"parameterNumber":2,"parameterNumberName":"U-component_of_WINDS"},"data":[0,0,0,0,0,0,0,0,0,0,0,0,0,0,0,0,0,0,0,0,0,0,0,0,0,0,0,0,0,0,0,0,0,0,0,0,0,0,0,0,0,0,0,0,0,0,0,0,0,0,0,0,0,0,0,0,0,0,-2.429,-2.429,0,-2.4282,-2.4282,-2.4282,-2.4175,-2.4173,-2.417,-2.4167,-2.4161,-2.4163,-2.4166,0,0,0,0,0,0,0,0,0,0,0,0,0,-2.4217,-2.4218,-2.429,-2.429,-2.4289,-2.4282,-2.4282,-2.4282,-2.4176,-2.4172,-2.4169,-2.4166,-2.416,-2.4163,-2.4166,0,0,0,0,0,0,0,0,0,0,0,0,0,-2.4233,-2.4219,-2.429,-2.4236,-2.4231,-2.4282,-2.4282,-2.4282,-2.4176,-2.4172,-2.4168,-2.4165,-2.4159,-2.4163,-2.4166,-2.4269,0,0,-2.4177,-2.4179,0,0,0,0,0,0,0,0,-2.4232,-2.4235,-2.4244,-2.424,-2.4234,-2.4225,-2.4253,-2.4277,-2.4177,-2.4197,-2.4167,-2.4163,-2.4186,-2.4187,-2.4194,-2.4269,-2.4268,-2.4177,-2.4179,-2.4181,-2.4182,0,0,0,0,0,0,0,-2.4231,-2.4235,-2.4287,-2.4244,-2.4238,-2.4213,-2.4211,-2.4258,-2.4214,-2.4195,-2.4187,-2.4188,-2.4182,-2.4191,-2.4193,-2.4268,-2.4177,-2.418,-2.4183,-2.4184,-2.443,-2.4434,0,0,0,0,0,0,-2.4237,-2.4235,-2.4287,-2.4286,-2.4223,-2.4218,-2.4215,-2.4232,-2.4214,-2.4207,-2.4191,-2.4183,-2.4187,-2.4189,-2.4193,-2.4313,-2.4181,-2.4184,-2.4186,-2.4425,-2.4431,-2.4435,0,0,0,0,0,0,-2.4236,-2.4242,-2.4287,-2.4259,-2.4262,-2.4223,-2.4243,-2.4234,-2.4243,-2.4211,-2.4203,-2.4208,-2.4184,-2.4188,-2.4251,-2.4312,-2.4186,-2.4189,-2.442,-2.4427,-2.4433,-2.4555,0,0,0,0,0,0,-2.4234,-2.4243,-2.428,-2.426,-2.4264,-2.4345,-2.4247,-2.4237,-2.4249,-2.4238,-2.4224,-2.4218,-2.4181,-2.4247,-2.4255,-2.4314,-2.4192,-2.4414,-2.4423,-2.4431,-2.4545,-2.4565,-2.4582,0,0,0,0,0,-2.4232,-2.4315,-2.4283,-2.429,-2.431,-2.4349,-2.4351,-2.4306,-2.4254,-2.4293,-2.4272,-2.4218,-2.4304,-2.4254,-2.4262,-2.4324,-2.441,-2.4421,-2.443,-2.4537,-2.4561,-2.4581,0,0,0,0,0,0,-2.4343,-2.4311,-2.4275,-2.4354,-2.4355,-2.4331,-2.4377,-2.4333,-2.4349,-2.4338,-2.4283,-2.4281,-2.4353,-2.4345,-2.429,-2.4424,-2.4348,-2.436,-2.4427,-2.4449,-2.4467,-2.4467,-2.4195,0,0,0,0,0,-2.4376,-2.4409,-2.438,-2.4453,-2.4455,-2.4417,-2.4431,-2.4397,-2.4396,-2.4396,-2.438,-2.4382,-2.441,-2.4429,-2.4452,-2.4544,-2.454,-2.459,-2.4609,-2.4624,-2.4635,-2.4685,-2.4708,-2.4468,-2.4468,-2.4468,0,0,-2.4446,-2.4433,-2.4457,-2.4475,-2.4471,-2.4508,-2.4417,-2.4459,-2.4487,-2.4403,-2.4462,-2.4451,-2.4449,-2.4528,-2.4562,-2.4523,-2.4701,-2.4636,-2.4649,-2.4652,-2.4698,-2.4721,-2.4741,-2.4475,-2.4473,-2.4472,0,0,-2.4592,-2.4585,-2.4645,-2.4644,-2.4641,-2.4615,-2.463,-2.4613,-2.4603,-2.4661,-2.46,-2.4632,-2.468,-2.4682,-2.469,-2.484,-2.4792,-2.4849,-2.4944,-2.4994,-2.5013,-2.503,-2.5085,-2.5105,-2.4861,-2.4861,-2.4861,0,-2.4679,-2.4731,-2.4682,-2.4729,-2.474,-2.4666,-2.4728,-2.473,-2.4734,-2.4744,-2.47,-2.4761,-2.4754,-2.4834,-2.4871,-2.4879,-2.4895,-2.485,-2.5014,-2.503,-2.5045,-2.5097,-2.5118,-2.4868,-2.4867,-2.4866,-2.4866,0,-2.484,-2.4877,-2.4927,-2.4933,-2.4949,-2.5004,-2.4965,-2.4987,-2.4953,-2.4932,-2.4995,-2.4985,-2.5006,-2.5022,-2.4988,-2.5098,-2.5074,-2.5024,-2.4946,-2.5076,-2.5124,-2.5144,-2.4878,-2.4876,-2.4873,-2.4872,0,0,-2.5054,-2.5034,-2.5054,-2.5057,-2.5049,-2.5077,-2.513,-2.515,-2.5172,-2.5178,-2.5222,-2.5265,-2.5219,-2.5228,-2.5194,-2.5238,-2.536,-2.5182,-2.5181,-2.5216,-2.5483,-2.5522,-2.5546,-2.5328,-2.5332,-2.5335,-2.5484,0,-2.5196,-2.5282,-2.5241,-2.5334,-2.5369,-2.5301,-2.5347,-2.5348,-2.5331,-2.536,-2.5341,-2.5374,-2.5309,-2.5314,-2.5355,-2.5337,-2.5413,-2.5325,-2.537,-2.5372,-2.5373,-2.557,-2.5611,-2.5752,-2.5502,-2.5505,-2.5507,0,-2.5372,-2.5387,-2.5483,-2.5471,-2.5484,-2.5526,-2.5543,-2.5571,-2.5572,-2.5556,-2.5568,-2.5525,-2.5577,-2.5501,-2.5573,-2.5515,-2.5531,-2.5525,-2.553,-2.5532,-2.5448,-2.558,-2.5795,-2.5817,-2.5536,-2.5534,-2.5532,0,-2.552,-2.5564,-2.5628,-2.5633,-2.562,-2.5651,-2.5648,-2.5645,-2.5661,-2.5676,-2.5686,-2.5708,-2.572,-2.5739,-2.5704,-2.5651,-2.5782,-2.5702,-2.5772,-2.5773,-2.5803,-2.5801,-2.6025,-2.5812,-2.5812,-2.5811,-2.5811,0,-2.5683,-2.5745,-2.5695,-2.5734,-2.5802,-2.5755,-2.5825,-2.5814,-2.5812,-2.5849,-2.5792,-2.5829,-2.578,-2.5812,-2.5785,-2.585,-2.5856,-2.5846,-2.5839,-2.5852,-2.5854,-2.5862,-2.5852,-2.5817,-2.5816,-2.5815,-2.5814,0,-2.586,-2.5828,-2.5894,-2.5877,-2.5875,-2.5926,-2.5912,-2.5949,-2.5929,-2.5977,-2.5986,-2.5955,-2.5991,-2.5958,-2.5991,-2.5973,-2.6061,-2.6038,-2.6061,-2.6055,-2.6127,-2.6122,-2.6365,-2.6395,-2.6162,-2.6164,-2.6166,0,-2.5966,-2.6012,-2.6002,-2.6022,-2.6022,-2.6057,-2.6073,-2.603,-2.6049,-2.6056,-2.6093,-2.6123,-2.6145,-2.6206,-2.6187,-2.6213,-2.6192,-2.6275,-2.6195,-2.6208,-2.6195,-2.6193,-2.6198,-2.6291,-2.6294,-2.6296,-2.6298,0,-2.6159,-2.6142,-2.6167,-2.6189,-2.621,-2.6225,-2.6235,-2.6256,-2.6211,-2.6237,-2.6273,-2.629,-2.6325,-2.6357,-2.6378,-2.6375,-2.6331,-2.6324,-2.6342,-2.6356,-2.6368,-2.6364,-2.6106,-2.6318,-2.6316,-2.6315,-2.6314,-2.6313,-2.6304,-2.6343,-2.6342,-2.6374,-2.6377,-2.6389,-2.6423,-2.6408,-2.6437,-2.6462,-2.6435,-2.648,-2.6482,-2.6505,-2.6509,-2.6544,-2.6509,-2.6534,-2.6541,-2.6548,-2.656,-2.6362,-2.6547,-2.6547,-2.6546,-2.6546,-2.6545,0,-2.6495,-2.6492,-2.6521,-2.6538,-2.6563,-2.6519,-2.6529,-2.6553,-2.6593,-2.6599,-2.6622,-2.6665,-2.6697,-2.6682,-2.6709,-2.6741,-2.6721,-2.675,-2.6747,-2.6748,-2.6588,-2.6571,-2.6765,-2.6765,-2.6765,-2.6765,-2.6765,-2.6765,-2.6597,-2.6661,-2.6645,-2.6711,-2.6707,-2.675,-2.676,-2.6772,-2.6776,-2.6826,-2.6852,-2.6842,-2.6841,-2.6868,-2.6896,-2.6891,-2.6905,-2.6941,-2.6929,-2.678,-2.6759,-2.6738,-2.6721,-2.6944,-2.6944,-2.7085,-2.7087,-2.7088]},{"header":{"parameterUnit":"m.s-1","parameterCategory":1,"la1":30.2991,"la2":30.254,"lo1":-89.0895,"lo2":-89.0444,"dx":0.0017,"dy":0.0017,"nx":28,"ny":28,"refTime":"2022-11-05T21:00:00:Z","depth":0,"parameterNumber":3,"parameterNumberName":"V-component_of_WINDS"},"data":[0,0,0,0,0,0,0,0,0,0,0,0,0,0,0,0,0,0,0,0,0,0,0,0,0,0,0,0,0,0,0,0,0,0,0,0,0,0,0,0,0,0,0,0,0,0,0,0,0,0,0,0,0,0,0,0,0,0,1.505,1.505,0,1.5049,1.5049,1.5049,1.5064,1.5065,1.5065,1.5065,1.5061,1.5061,1.506,0,0,0,0,0,0,0,0,0,0,0,0,0,1.5063,1.5062,1.505,1.505,1.505,1.5049,1.5049,1.5049,1.5064,1.5065,1.5065,1.5066,1.5061,1.5061,1.506,0,0,0,0,0,0,0,0,0,0,0,0,0,1.5059,1.5062,1.505,1.5058,1.5058,1.5049,1.5049,1.5049,1.5064,1.5065,1.5065,1.5066,1.5062,1.5061,1.506,1.5043,0,0,1.5058,1.5057,0,0,0,0,0,0,0,0,1.5059,1.5058,1.5057,1.5057,1.5058,1.5058,1.5052,1.5047,1.5064,1.5062,1.5065,1.5066,1.5059,1.5059,1.5057,1.5043,1.5043,1.5058,1.5057,1.5057,1.5057,0,0,0,0,0,0,0,1.5059,1.5058,1.505,1.5056,1.5057,1.506,1.506,1.5051,1.5057,1.5062,1.5063,1.5063,1.506,1.5058,1.5057,1.5043,1.5058,1.5057,1.5057,1.5056,1.5014,1.5014,0,0,0,0,0,0,1.5059,1.5059,1.505,1.505,1.506,1.5059,1.506,1.5057,1.5057,1.5058,1.5062,1.5064,1.5059,1.5058,1.5057,1.5037,1.5057,1.5056,1.5056,1.5015,1.5014,1.5014,0,0,0,0,0,0,1.5059,1.5058,1.505,1.5055,1.5054,1.5059,1.5055,1.5057,1.5055,1.5057,1.5058,1.5059,1.5059,1.5058,1.5047,1.5037,1.5056,1.5055,1.5016,1.5015,1.5014,1.4997,0,0,0,0,0,0,1.5059,1.5058,1.5052,1.5054,1.5053,1.504,1.5055,1.5056,1.5054,1.5055,1.5055,1.5055,1.506,1.5048,1.5046,1.5036,1.5055,1.5017,1.5015,1.5014,1.4998,1.4995,1.4993,0,0,0,0,0,1.506,1.5046,1.5052,1.505,1.5046,1.504,1.5039,1.5045,1.5053,1.5047,1.5049,1.5055,1.5039,1.5046,1.5044,1.5034,1.5017,1.5016,1.5014,1.4999,1.4996,1.4993,0,0,0,0,0,0,1.5042,1.5047,1.5053,1.504,1.5039,1.5042,1.5034,1.5041,1.5037,1.5039,1.5046,1.5045,1.5033,1.5033,1.5041,1.5018,1.5029,1.5027,1.5018,1.5015,1.5012,1.5012,1.5054,0,0,0,0,0,1.5036,1.5031,1.5036,1.5024,1.5024,1.5029,1.5026,1.5031,1.503,1.503,1.5031,1.5029,1.5024,1.5019,1.5014,1.4999,1.4998,1.4991,1.4988,1.4986,1.4984,1.4975,1.4972,1.5009,1.5009,1.5009,0,0,1.5025,1.5027,1.5023,1.5021,1.5021,1.5015,1.5029,1.5022,1.5017,1.5029,1.5018,1.5019,1.5017,1.5004,1.4998,1.5003,1.4974,1.4984,1.4982,1.4981,1.4973,1.497,1.4966,1.5008,1.5008,1.5008,0,0,1.5001,1.5002,1.4993,1.4993,1.4993,1.4997,1.4995,1.4997,1.4998,1.4988,1.4997,1.4991,1.4982,1.498,1.4978,1.4955,1.4961,1.4953,1.4938,1.493,1.4927,1.4924,1.4915,1.4912,1.4951,1.4951,1.4951,0,1.4986,1.4978,1.4986,1.4979,1.4977,1.4989,1.4979,1.4979,1.4977,1.4975,1.4982,1.497,1.497,1.4956,1.4951,1.4949,1.4946,1.4952,1.4927,1.4924,1.4922,1.4913,1.491,1.495,1.495,1.495,1.495,0,1.496,1.4954,1.4946,1.4945,1.4943,1.4934,1.4941,1.4937,1.4943,1.4945,1.4935,1.4935,1.4931,1.4928,1.4933,1.4915,1.4918,1.4926,1.4937,1.4917,1.4909,1.4906,1.4948,1.4949,1.4949,1.4949,0,0,1.4922,1.4928,1.4925,1.4925,1.4927,1.4922,1.4914,1.491,1.4907,1.4906,1.4898,1.489,1.4898,1.4895,1.49,1.4893,1.4874,1.4901,1.4901,1.4895,1.4853,1.4847,1.4843,1.4878,1.4878,1.4877,1.4853,0,1.4898,1.4885,1.4893,1.4878,1.4873,1.4885,1.4878,1.4878,1.4881,1.4876,1.4879,1.4873,1.4883,1.4882,1.4875,1.4877,1.4865,1.488,1.487,1.487,1.4869,1.4839,1.4832,1.4809,1.485,1.485,1.4849,0,1.4868,1.4867,1.4852,1.4856,1.4854,1.4847,1.4845,1.484,1.4841,1.4843,1.4841,1.4848,1.484,1.4852,1.484,1.4849,1.4846,1.4847,1.4846,1.4844,1.4857,1.4835,1.4802,1.4798,1.4845,1.4845,1.4845,0,1.4842,1.4836,1.4827,1.4826,1.483,1.4825,1.4827,1.4828,1.4825,1.4823,1.4822,1.4818,1.4816,1.4813,1.4818,1.4827,1.4805,1.4818,1.4806,1.4806,1.48,1.48,1.4764,1.48,1.48,1.48,1.48,0,1.4813,1.4803,1.4815,1.4809,1.4798,1.4807,1.4796,1.4799,1.48,1.4794,1.4804,1.4798,1.4806,1.4801,1.4805,1.4794,1.4793,1.4794,1.4795,1.4792,1.4792,1.4789,1.4791,1.4799,1.4799,1.4799,1.4799,0,1.4781,1.4789,1.4779,1.4784,1.4785,1.4777,1.4781,1.4775,1.4779,1.4772,1.477,1.4776,1.4771,1.4776,1.4771,1.4774,1.4759,1.4762,1.4759,1.4759,1.4747,1.4747,1.4707,1.4702,1.4742,1.4742,1.4741,0,1.4762,1.4755,1.476,1.4757,1.4758,1.4753,1.4751,1.476,1.4758,1.4758,1.4752,1.4748,1.4744,1.4735,1.4738,1.4734,1.4737,1.4723,1.4736,1.4734,1.4735,1.4735,1.4734,1.472,1.4719,1.4719,1.4719,0,1.4727,1.4731,1.4728,1.4727,1.4724,1.4723,1.4723,1.472,1.473,1.4726,1.4721,1.4719,1.4714,1.4709,1.4706,1.4706,1.4713,1.4715,1.4712,1.4708,1.4706,1.4706,1.475,1.4715,1.4716,1.4716,1.4716,1.4716,1.47,1.4694,1.4697,1.4693,1.4694,1.4694,1.4689,1.4693,1.4689,1.4687,1.4692,1.4686,1.4686,1.4683,1.4683,1.4678,1.4683,1.4679,1.4678,1.4676,1.4674,1.4708,1.4677,1.4677,1.4677,1.4678,1.4678,0,1.4665,1.4667,1.4664,1.4664,1.4661,1.467,1.467,1.4667,1.4662,1.4662,1.4659,1.4653,1.4649,1.4653,1.4649,1.4644,1.4647,1.4642,1.4642,1.4642,1.4669,1.4672,1.464,1.464,1.464,1.464,1.464,1.464,1.4646,1.4636,1.4641,1.4632,1.4635,1.4629,1.4628,1.4628,1.4629,1.4622,1.4619,1.4622,1.4623,1.462,1.4616,1.4617,1.4615,1.4608,1.4611,1.4636,1.464,1.4643,1.4646,1.4608,1.4608,1.4583,1.4583,1.4583]}]]